Stations météo

réclame
Mon MeteoGroup
La Hoya, Espagne (8205): Température de l'air & dewpoint: 14.10.2018 19:00:00 - 20.10.2018 19:00:00 (CEST)La Hoya, Espagne (8205): visibility: 14.10.2018 19:00:00 - 20.10.2018 19:00:00 (CEST)La Hoya, Espagne (8205): Quantités de précipitations: 14.10.2018 19:00:00 - 20.10.2018 19:00:00 (CEST)
Date & Time tt [°C] td [°C] vv [km] rr [mm]
20.10.2018 19:00:00 7,7 5,9 20 0,0
20.10.2018 18:00:00 8,4 6,7 20 0,0
20.10.2018 17:00:00 9,6 6,7 20 0,0
20.10.2018 16:00:00 8,0 6,7 20 0,0
20.10.2018 15:00:00 7,4 7,1 20 0,0
20.10.2018 14:00:00 7,6 7,3 20 -
20.10.2018 13:00:00 6,8 6,7 20 0,0
20.10.2018 12:00:00 6,1 5,9 20 0,0
20.10.2018 11:00:00 5,5 5,3 20 0,2
20.10.2018 10:00:00 5,4 5,3 20 0,0
20.10.2018 09:00:00 5,5 5,3 16 0,0
20.10.2018 08:00:00 5,3 5,1 20 -
20.10.2018 07:00:00 5,7 5,6 0,2 0,0
20.10.2018 06:00:00 5,6 5,5 20 0,0
20.10.2018 05:00:00 5,7 5,6 0,4 0,0
20.10.2018 04:00:00 5,7 5,6 0,9 0,0
20.10.2018 03:00:00 5,8 5,6 0,4 0,4
20.10.2018 02:00:00 5,8 5,6 0,3 -
20.10.2018 01:00:00 5,9 5,8 0,3 0,2
20.10.2018 00:00:00 5,7 5,6 0,2 0,0
19.10.2018 23:00:00 6,0 5,8 0,3 0,2
19.10.2018 22:00:00 6,6 6,4 0,4 1,2
19.10.2018 21:00:00 7,1 7,0 0,6 1,6
19.10.2018 20:00:00 - - - -
19.10.2018 19:00:00 6,8 6,7 0,5 2,0
19.10.2018 18:00:00 6,9 6,7 0,2 0,0
19.10.2018 17:00:00 7,1 7,0 0,2 0,6
19.10.2018 16:00:00 7,0 6,8 0,1 0,6
19.10.2018 15:00:00 6,9 6,8 - 0,0
19.10.2018 14:00:00 6,7 6,5 0,4 -
19.10.2018 13:00:00 6,3 6,1 0,5 0,4
19.10.2018 12:00:00 6,0 5,8 1,4 0,2
19.10.2018 11:00:00 - - - -
19.10.2018 10:00:00 5,5 5,3 0,4 0,2
19.10.2018 09:00:00 5,5 5,3 0,3 0,0
19.10.2018 08:00:00 5,8 5,6 0,2 -
19.10.2018 07:00:00 5,8 5,6 0,2 0,2
19.10.2018 06:00:00 5,7 5,6 0,3 1,2
19.10.2018 05:00:00 5,7 5,6 0,6 0,2
19.10.2018 04:00:00 5,7 5,6 0,8 0,0
19.10.2018 03:00:00 5,8 5,6 0,4 0,4
19.10.2018 02:00:00 5,9 5,8 0,8 -
19.10.2018 01:00:00 6,1 5,9 0,6 0,0
19.10.2018 00:00:00 6,2 6,1 0,5 0,0
18.10.2018 23:00:00 6,4 6,1 0,9 0,0
18.10.2018 22:00:00 6,4 6,1 0,6 0,6
18.10.2018 21:00:00 6,2 5,5 5 0,0
18.10.2018 20:00:00 6,1 5,3 20 -
18.10.2018 19:00:00 6,6 5,6 7 0,2
18.10.2018 18:00:00 6,8 5,5 20 0,0
18.10.2018 17:00:00 6,8 6,5 - 0,2
18.10.2018 16:00:00 6,6 6,1 0,1 0,0
18.10.2018 15:00:00 6,8 6,5 16 0,0
18.10.2018 14:00:00 6,4 6,1 0,1 -
18.10.2018 13:00:00 6,8 6,2 11 0,0
18.10.2018 12:00:00 5,8 4,5 20 0,6
18.10.2018 11:00:00 4,3 3,8 10 0,8
18.10.2018 10:00:00 4,3 3,0 20 3,2
18.10.2018 09:00:00 4,2 3,0 6 2,8
18.10.2018 08:00:00 4,6 2,7 14 -
18.10.2018 07:00:00 3,5 2,5 8 9,4
18.10.2018 06:00:00 4,6 3,4 5 6,6
18.10.2018 05:00:00 5,4 5,1 0,3 0,0
18.10.2018 04:00:00 5,0 4,6 10 0,0
18.10.2018 03:00:00 5,5 4,8 0,3 0,6
18.10.2018 02:00:00 6,3 3,9 20 -
18.10.2018 01:00:00 6,0 5,1 0,1 0,0
18.10.2018 00:00:00 7,4 2,1 20 0,0
17.10.2018 23:00:00 7,0 5,0 20 0,0
17.10.2018 22:00:00 7,1 4,3 20 0,0
17.10.2018 21:00:00 6,3 4,5 20 0,0
17.10.2018 20:00:00 6,6 5,3 20 -
17.10.2018 19:00:00 7,1 6,5 0,1 0,0
17.10.2018 18:00:00 7,7 6,7 1,4 0,0
17.10.2018 17:00:00 9,2 6,7 20 0,0
17.10.2018 16:00:00 9,0 7,1 20 0,0
17.10.2018 15:00:00 9,3 6,7 20 0,0
17.10.2018 14:00:00 10,3 6,2 20 -
17.10.2018 13:00:00 10,5 4,8 20 0,0
17.10.2018 12:00:00 9,4 2,7 20 0,0
17.10.2018 11:00:00 9,1 1,5 20 0,0
17.10.2018 10:00:00 7,5 1,1 20 0,0
17.10.2018 09:00:00 3,8 0,2 20 0,0
17.10.2018 08:00:00 4,6 0,2 20 -
17.10.2018 07:00:00 4,2 -0,3 20 0,0
17.10.2018 06:00:00 4,4 0,6 20 0,0
17.10.2018 05:00:00 4,5 0,4 20 0,0
17.10.2018 04:00:00 4,6 0,6 20 0,0
17.10.2018 03:00:00 4,2 0,6 20 0,0
17.10.2018 02:00:00 4,4 0,6 20 -
17.10.2018 01:00:00 5,5 0,9 20 0,0
17.10.2018 00:00:00 6,1 1,3 20 0,0
16.10.2018 23:00:00 6,8 0,6 20 0,0
16.10.2018 22:00:00 6,7 2,7 20 0,0
16.10.2018 21:00:00 6,9 3,9 20 0,0
16.10.2018 20:00:00 5,9 5,6 - -
16.10.2018 19:00:00 6,5 6,2 0,8 0,0
16.10.2018 18:00:00 6,6 6,2 0,6 -
16.10.2018 17:00:00 - - - -
16.10.2018 16:00:00 - - - -
16.10.2018 15:00:00 - - - -
16.10.2018 14:00:00 - - - -
16.10.2018 13:00:00 - - - -
16.10.2018 12:00:00 - - - -
16.10.2018 11:00:00 - - - -
16.10.2018 10:00:00 - - - -
16.10.2018 09:00:00 - - - -
16.10.2018 08:00:00 - - - -
16.10.2018 07:00:00 - - - -
16.10.2018 06:00:00 - - - -
16.10.2018 05:00:00 - - - -
16.10.2018 04:00:00 - - - -
16.10.2018 03:00:00 - - - -
16.10.2018 02:00:00 - - - -
16.10.2018 01:00:00 - - - -
16.10.2018 00:00:00 - - - -
15.10.2018 23:00:00 - - - -
15.10.2018 22:00:00 - - - -
15.10.2018 21:00:00 - - - -
15.10.2018 20:00:00 - - - -
15.10.2018 19:00:00 - - - -
15.10.2018 18:00:00 - - - -
15.10.2018 17:00:00 - - - -
15.10.2018 16:00:00 - - - -
15.10.2018 15:00:00 - - - -
15.10.2018 14:00:00 - - - -
15.10.2018 13:00:00 - - - -
15.10.2018 12:00:00 - - - -
15.10.2018 11:00:00 - - - -
15.10.2018 10:00:00 - - - -
15.10.2018 09:00:00 - - - -
15.10.2018 08:00:00 - - - -
15.10.2018 07:00:00 - - - -
15.10.2018 06:00:00 - - - -
15.10.2018 05:00:00 - - - -
15.10.2018 04:00:00 - - - -
15.10.2018 03:00:00 - - - -
15.10.2018 02:00:00 - - - -
15.10.2018 01:00:00 - - - -
15.10.2018 00:00:00 - - - -
14.10.2018 23:00:00 - - - -
14.10.2018 22:00:00 - - - -
14.10.2018 21:00:00 - - - -
14.10.2018 20:00:00 - - - -
14.10.2018 19:00:00 - - - -

tt = Température de l'air
td = dewpoint
vv = visibility
rr = Quantités de précipitations

stations d'obs. à proximité